This is the latest recevied weather packets stored in our database for station/object OE9SAU-10. If no packets are shown the sender has not sent any weather packets the latest 10 day(s).
| Time | Temp. | Humidity | Pressure | Rain* | Wind** | Luminosity | Snow |
|---|---|---|---|---|---|---|---|
| 1777374172 | 20.56° C | 40% | 1018.8 hPa | - | - | - | - |
| 1777373272 | 20° C | 41% | 1019 hPa | - | - | - | - |
| 1777372372 | 20° C | 40% | 1019 hPa | - | - | - | - |
| 1777371472 | 19.44° C | 40% | 1019.1 hPa | - | - | - | - |
| 1777370572 | 19.44° C | 42% | 1019.2 hPa | - | - | - | - |
| 1777369672 | 18.89° C | 41% | 1019.1 hPa | - | - | - | - |
| 1777368771 | 18.89° C | 42% | 1019.3 hPa | - | - | - | - |
| 1777367871 | 18.33° C | 42% | 1019.3 hPa | - | - | - | - |
| 1777366971 | 17.78° C | 43% | 1019.2 hPa | - | - | - | - |
| 1777366071 | 17.78° C | 42% | 1019.1 hPa | - | - | - | - |
| 1777365171 | 17.22° C | 44% | 1019.1 hPa | - | - | - | - |
| 1777364271 | 17.22° C | 45% | 1019 hPa | - | - | - | - |
| 1777363371 | 16.67° C | 44% | 1019.1 hPa | - | - | - | - |
| 1777362471 | 16.11° C | 44% | 1019.2 hPa | - | - | - | - |
| 1777361571 | 15.56° C | 43% | 1019.3 hPa | - | - | - | - |
| 1777360671 | 15.56° C | 44% | 1019.3 hPa | - | - | - | - |
| 1777359770 | 15° C | 45% | 1019.4 hPa | - | - | - | - |
| 1777358870 | 14.44° C | 44% | 1019.4 hPa | - | - | - | - |
| 1777357970 | 14.44° C | 45% | 1019.5 hPa | - | - | - | - |
| 1777357070 | 14.44° C | 45% | 1019.5 hPa | - | - | - | - |
| 1777356170 | 14.44° C | 45% | 1019.6 hPa | - | - | - | - |
| 1777355270 | 13.89° C | 43% | 1019.6 hPa | - | - | - | - |
| 1777354370 | 13.89° C | 43% | 1019.6 hPa | - | - | - | - |
| 1777353470 | 13.89° C | 42% | 1019.5 hPa | - | - | - | - |
| 1777352569 | 13.89° C | 43% | 1019.4 hPa | - | - | - | - |
* Rain since midnight (hover to see other rain measurements)
** Current wind speed in m/s (hover to see current wind gust speed)